Weather History for Hutchinson, KS

Change the Weather History Date:

Wednesday, June 18, 2014

  Actual Average Record
Temperature  
Mean Temperature 83 °F -  
Max Temperature 93 °F 84 °F 95 °F (2001)
Min Temperature 75 °F 60 °F 44 °F (2000)
Cooling Degree Days 18    
Growing Degree Days 33 (Base 50)    
Moisture  
Dew Point 68 °F    
Average Humidity 60    
Maximum Humidity 74    
Minimum Humidity 44    
Precipitation  
Precipitation 0.00 in - - ()
Sea Level Pressure  
Sea Level Pressure 29.73 in    
Wind  
Wind Speed 19 mph (South)    
Max Wind Speed 25 mph    
Max Gust Speed 32 mph    
Visibility 10 miles    
Events      
Averages and records for this station are not official NWS values.
T = Trace of Precipitation, MM = Missing Value Source: NWS Daily Summary

Daily Weather History Graph

Daily Weather History Graph

Search for Another Location

Airport:

Trip Planner

Search our weather history database for the weather conditions in past years. The results will help you decide how hot, cold, wet, or windy it might be!

Date:

Astronomy

Jun. 18, 2014 Rise Set
Actual Time 6:08 AM CDT 8:56 PM CDT
Civil Twilight 5:36 AM CDT 9:28 PM CDT
Nautical Twilight 4:57 AM CDT 10:08 PM CDT
Astronomical Twilight 4:12 AM CDT 10:53 PM CDT
Moon 12:31 AM CDT (6/18) 12:27 PM CDT (6/18)
Length of Visible Light 15h 51m
Length of Day
14h 48m
Waning Gibbous, 62% of the Moon is Illuminated
Jun 18
Waning Gibbous
Jun 19
Last Quarter
Jun 27
New
Jul 5
First Quarter
Jul 12
Full

Hourly Weather History & Observations

Time (CDT) Temp. Heat Index Dew Point Humidity Pressure Visibility Wind Dir Wind Speed Gust Speed Precip Events Conditions
12:52 AM 80.1 °F 82.9 °F 69.1 °F 69% 29.71 in 10.0 mi SSE 17.3 mph 26.5 mph N/A   Clear
1:52 AM 79.0 °F - 68.0 °F 69% 29.72 in 10.0 mi South 19.6 mph 26.5 mph N/A   Clear
2:52 AM 77.0 °F - 68.0 °F 74% 29.72 in 10.0 mi South 13.8 mph 23.0 mph N/A   Clear
3:52 AM 77.0 °F - 66.9 °F 71% 29.72 in 10.0 mi South 15.0 mph - N/A   Clear
5:52 AM 75.9 °F - 66.9 °F 74% 29.71 in 10.0 mi South 16.1 mph - N/A   Clear
6:52 AM 75.9 °F - 66.9 °F 74% 29.73 in 10.0 mi South 17.3 mph - N/A   Clear
7:52 AM 78.1 °F - 66.9 °F 68% 29.73 in 10.0 mi South 21.9 mph 27.6 mph N/A   Clear
8:52 AM 80.1 °F 82.7 °F 68.0 °F 67% 29.74 in 10.0 mi South 23.0 mph 31.1 mph N/A   Clear
9:52 AM 82.9 °F 86.5 °F 69.1 °F 63% 29.73 in 10.0 mi South 20.7 mph 32.2 mph N/A   Clear
10:52 AM 86.0 °F 90.1 °F 69.1 °F 57% 29.73 in 10.0 mi South 23.0 mph 31.1 mph N/A   Clear
11:52 AM 88.0 °F 92.1 °F 69.1 °F 53% 29.74 in 10.0 mi South 25.3 mph 31.1 mph N/A   Clear
12:52 PM 90.0 °F 93.6 °F 68.0 °F 48% 29.73 in 10.0 mi South 24.2 mph 29.9 mph N/A   Clear
1:52 PM 91.0 °F 95.2 °F 68.0 °F 47% 29.73 in 10.0 mi South 23.0 mph 29.9 mph N/A   Clear
2:52 PM 90.0 °F 93.6 °F 68.0 °F 48% 29.73 in 10.0 mi South 25.3 mph - N/A   Clear
3:52 PM 89.1 °F 93.7 °F 69.1 °F 52% 29.73 in 10.0 mi South 20.7 mph - N/A   Clear
4:52 PM 89.1 °F 94.1 °F 70.0 °F 53% 29.72 in 10.0 mi South 17.3 mph 24.2 mph N/A   Clear
5:52 PM 91.9 °F 95.4 °F 66.9 °F 44% 29.71 in 10.0 mi South 21.9 mph 28.8 mph N/A   Clear
6:52 PM 91.0 °F 94.3 °F 66.9 °F 45% 29.72 in 10.0 mi South 20.7 mph 26.5 mph N/A   Scattered Clouds
7:52 PM 88.0 °F 91.4 °F 68.0 °F 51% 29.72 in 10.0 mi South 21.9 mph 27.6 mph N/A   Clear
8:52 PM 86.0 °F 90.1 °F 69.1 °F 57% 29.75 in 10.0 mi SSE 16.1 mph - N/A   Partly Cloudy
9:52 PM 84.0 °F 87.8 °F 69.1 °F 61% 29.75 in 10.0 mi SSE 17.3 mph 25.3 mph N/A   Clear
10:52 PM 82.9 °F 87.0 °F 70.0 °F 65% 29.77 in 10.0 mi SSE 16.1 mph - N/A   Clear
11:52 PM 81.0 °F 84.1 °F 69.1 °F 67% 29.78 in 10.0 mi South 17.3 mph 26.5 mph N/A   Clear